Alabaster, AL

7:11 PM CDT on October 22, 2019 (GMT -0500)
Shelby County

Weather History for KEET - August, 2019

Change the Weather History Date:

Wednesday, August 7, 2019

  Actual Average Record
Temperature  
Mean Temperature 85 °F 81 °F  
Max Temperature 97 °F 91 °F 100 °F (1962)
Min Temperature 73 °F 71 °F 61 °F (1957)
Cooling Degree Days 20 16  
Month to date cooling degree days 117 112  
Year to date cooling degree days 1406 1242  
Since 1 June cooling degree days 1009 973  
Growing Degree Days 34 (Base 50)    
Moisture  
Dew Point 69 °F    
Average Humidity 63    
Maximum Humidity 87    
Minimum Humidity 39    
Precipitation  
Precipitation 0.00 in 0.15 in 1.38 in (2001)
Month to date precipitation 0.10 1.01  
Year to date precipitation 31.38 34.33  
Sea Level Pressure  
Sea Level Pressure 29.91 in    
Wind  
Wind Speed 3 mph (WNW)    
Max Wind Speed 13 mph    
Max Gust Speed 20 mph    
Visibility 10 miles    
Events      
T = Trace of Precipitation, MM = Missing Value Source: NWS Daily Summary

Daily Weather History Graph

Daily Weather History Graph

Search for Another Location

Airport or City:

Astronomy

Aug. 07, 2019 Rise Set
Actual Time 6:04 AM CDT 7:41 PM CDT
Civil Twilight 5:37 AM CDT 8:07 PM CDT
Nautical Twilight 5:05 AM CDT 8:39 PM CDT
Astronomical Twilight 4:31 AM CDT 9:13 PM CDT
Moon 1:12 PM CDT (8/7) No Moon Set
Length of Visible Light 14h 30m
Length of Day
13h 36m
Waxing Crescent, 50% of the Moon is Illuminated
Aug 7
Waxing Crescent
Aug 7
First Quarter
Aug 15
Full
Aug 23
Last Quarter
Aug 30
New

Hourly Weather History & Observations

Time (CDT) Temp. Heat Index Dew Point Humidity Pressure Visibility Wind Dir Wind Speed Gust Speed Precip Events Conditions
12:53 AM 75.0 °F - 70.0 °F 84% 29.91 in 10.0 mi Calm Calm - N/A   Clear
2:53 AM 73.0 °F - 70.0 °F 90% 29.91 in 9.0 mi Calm Calm - N/A   Clear
3:53 AM 73.9 °F - 69.1 °F 85% 29.91 in 10.0 mi Calm Calm - N/A   Clear
4:53 AM 73.9 °F - 69.1 °F 85% 29.90 in 10.0 mi Calm Calm - N/A   Clear
5:53 AM 73.9 °F - 69.1 °F 85% 29.90 in 10.0 mi Calm Calm - N/A   Clear
6:53 AM 73.9 °F - 69.1 °F 85% 29.94 in 9.0 mi Calm Calm - N/A   Clear
7:53 AM 78.1 °F - 69.1 °F 74% 29.95 in 10.0 mi Calm Calm - N/A   Clear
8:53 AM 81.0 °F 84.4 °F 70.0 °F 69% 29.94 in 10.0 mi Calm Calm - N/A   Clear
9:53 AM 84.9 °F 89.4 °F 70.0 °F 61% 29.95 in 10.0 mi WNW 4.6 mph - N/A   Clear
10:53 AM 89.1 °F 95.0 °F 71.1 °F 55% 29.94 in 10.0 mi NW 8.1 mph - N/A   Clear
11:53 AM 91.0 °F 96.6 °F 70.0 °F 50% 29.94 in 10.0 mi Variable 5.8 mph - N/A   Scattered Clouds
12:53 PM 91.9 °F 95.9 °F 68.0 °F 45% 29.92 in 10.0 mi Calm Calm - N/A   Mostly Cloudy
1:53 PM 93.9 °F 100.3 °F 70.0 °F 46% 29.90 in 10.0 mi WNW 6.9 mph - N/A   Scattered Clouds
2:53 PM 95.0 °F 99.0 °F 66.9 °F 40% 29.88 in 10.0 mi Variable 6.9 mph - N/A   Scattered Clouds
3:53 PM 95.0 °F 99.0 °F 66.9 °F 40% 29.86 in 10.0 mi West 8.1 mph - N/A   Partly Cloudy
4:53 PM 95.0 °F 99.0 °F 66.9 °F 40% 29.84 in 10.0 mi WNW 9.2 mph 19.6 mph N/A   Partly Cloudy
5:53 PM 93.0 °F 97.4 °F 68.0 °F 44% 29.84 in 10.0 mi WNW 5.8 mph - N/A   Partly Cloudy
6:53 PM 91.0 °F 94.3 °F 66.9 °F 45% 29.89 in 10.0 mi WNW 6.9 mph - N/A   Clear
7:53 PM 87.1 °F 92.0 °F 70.0 °F 57% 29.90 in 10.0 mi NW 4.6 mph - N/A   Clear
8:53 PM 86.0 °F 90.7 °F 70.0 °F 59% 29.91 in 10.0 mi WNW 6.9 mph - N/A   Partly Cloudy
9:53 PM 81.0 °F 83.3 °F 66.9 °F 62% 29.93 in 10.0 mi Variable 3.5 mph - N/A   Clear
10:53 PM 78.1 °F - 66.9 °F 68% 29.89 in 10.0 mi Calm Calm - N/A   Clear
11:53 PM 75.9 °F - 68.0 °F 76% 29.90 in 10.0 mi Calm Calm - N/A   Clear